Regional Weather Roundup
Issued by NWS Memphis, TN

Home | Current Version | Previous Version | Text Only | Print | Product List | Glossary On
Versions: 1 2 3 4 5 6 7 8 9 10 11 12 13 14 15 16 17 18 19 20 21 22 23 24 25 26 27 28 29 30 31 32 33 34 35 36 37 38 39 40 41 42 43 44 45 46 47 48 49 50
000
ASUS44 KMEG 241810
RWRMEG
MEMPHIS CWA HOURLY WEATHER ROUNDUP
NATIONAL WEATHER SERVICE MEMPHIS TN
100 PM CDT FRI OCT 24 2014

...WEST TENNESSEE...

CITY           SKY/WX    TMP DP  RH WIND       PRES   REMARKS
MEMPHIS INTL   MOSUNNY   70  48  45 CALM      30.13F
6HR MIN TEMP:  47; 6HR MAX TEMP:  70;

NWS MEMPHIS      N/A     69 N/A N/A MISG        N/A
JACKSON        SUNNY     68  48  48 VRB6      30.12F
6HR MIN TEMP:  39; 6HR MAX TEMP:  68;

LEXINGTON      SUNNY     68  41  37 CALM      30.11F
SAVANNAH       SUNNY     66  45  45 NE3       30.12F
DYERSBURG      SUNNY     68  45  42 N3        30.13F
6HR MIN TEMP:  43; 6HR MAX TEMP:  68;

UNION CITY     SUNNY     66  50  55 CALM      30.10F
PARIS          SUNNY     64  52  63 VRB3      30.12F
HUNTINGDON     SUNNY     65  49  56 VRB5      30.11F


...EASTERN ARKANSAS...

CITY           SKY/WX    TMP DP  RH WIND       PRES   REMARKS
JONESBORO      SUNNY     68  53  58 W6        30.13F
6HR MIN TEMP:  44; 6HR MAX TEMP:  68;

WEST MEMPHIS   SUNNY     70  51  51 W6        30.12F
6HR MIN TEMP:  42; 6HR MAX TEMP:  70;

BATESVILLE     PTSUNNY   70  54  56 CALM      30.13F
6HR MIN TEMP:  43; 6HR MAX TEMP:  70;

NEWPORT        PTSUNNY   71  52  51 W5        30.15F
6HR MIN TEMP:  44; 6HR MAX TEMP:  71;

WALNUT RIDGE   SUNNY     66  30  26 N3        30.13F
6HR MIN TEMP:  46; 6HR MAX TEMP:  66;

BLYTHEVILLE    PTSUNNY   72  51  47 CALM      30.12F
6HR MIN TEMP:  43; 6HR MAX TEMP:  72;

SEARCY         SUNNY     73  54  51 VRB5      30.15F
6HR MIN TEMP:  44; 6HR MAX TEMP:  73;

STUTTGART      SUNNY     72  52  49 SW6       30.15F
6HR MIN TEMP:  46; 6HR MAX TEMP:  72;

PINE BLUFF     SUNNY     70  50  49 CALM      30.15F
6HR MIN TEMP:  44; 6HR MAX TEMP:  71;

MONTICELLO     LGT RAIN  70  50  49 VRB5      30.15F
6HR MIN TEMP:  44; 6HR MAX TEMP:  71; 6HR PCP: TRACE;



...NORTH MISSISSIPPI...

CITY           SKY/WX    TMP DP  RH WIND       PRES   REMARKS
TUPELO         SUNNY     69  44  40 VRB6      30.11F
6HR MIN TEMP:  49; 6HR MAX TEMP:  70;

OXFORD         SUNNY     66  45  45 N6        30.15S
OLIVE BRANCH   MOSUNNY   66  50  55 CALM      30.13F
TUNICA         SUNNY     68  46  45 CALM      30.14F
CLARKSDALE     SUNNY     68  48  49 NW6       30.15F
CORINTH        SUNNY     68  41  37 NE5       30.11F
GRENADA          N/A    N/A N/A N/A MISG        N/A
GREENWOOD      SUNNY     70  44  39 NW5       30.12F
6HR MIN TEMP:  42; 6HR MAX TEMP:  71;

COLUMBUS       SUNNY     69  46  42 NW8       30.10F
6HR MIN TEMP:  47; 6HR MAX TEMP:  69;

STARKVILLE     FAIR      68  45  42 NW7       30.10F
GOLDEN TRIANGL SUNNY     72  46  40 N5        30.10F


...SOUTHEAST MISSOURI...

CITY           SKY/WX    TMP DP  RH WIND       PRES   REMARKS
WEST PLAINS    MOSUNNY   68  55  63 W5        30.13F
6HR MIN TEMP:  43; 6HR MAX TEMP:  69;

POPLAR BLUFF   PTSUNNY   67  53  61 SW6       30.11F
6HR MIN TEMP:  49; 6HR MAX TEMP:  68;

CAPE GIRARDEAU SUNNY     66  56  70 CALM      30.11F
6HR MIN TEMP:  50; 6HR MAX TEMP:  68;



...NORTHWEST ALABAMA...

CITY           SKY/WX    TMP DP  RH WIND       PRES   REMARKS
MUSCLE SHOALS  SUNNY     71  37  28 N7        30.11F
6HR MIN TEMP:  43; 6HR MAX TEMP:  71;



...MIDDLE TENNESSEE...

CITY           SKY/WX    TMP DP  RH WIND       PRES   REMARKS
NASHVILLE      MOSUNNY   67  41  38 N5        30.11F
6HR MIN TEMP:  45; 6HR MAX TEMP:  68;

CLARKSVILLE    PTSUNNY   65  43  44 NW6       30.11F
6HR MIN TEMP:  39; 6HR MAX TEMP:  66;

COLUMBIA         N/A     68  45  42 VRB6      30.09F


...WESTERN KENTUCKY...

CITY           SKY/WX    TMP DP  RH WIND       PRES   REMARKS
PADUCAH        SUNNY     68  54  60 NW7       30.10F
6HR MIN TEMP:  43; 6HR MAX TEMP:  69;

FORT CAMPBELL  PTSUNNY   65  42  43 VRB2      30.11F
6HR MIN TEMP:  42; 6HR MAX TEMP:  65;



...CENTRAL ARKANSAS...

CITY           SKY/WX    TMP DP  RH WIND       PRES   REMARKS
LITTLE ROCK    MOSUNNY   73  51  46 SW5       30.14F
6HR MIN TEMP:  48; 6HR MAX TEMP:  73;



SKY/WX REPORTED AS FAIR MEANS FEW OR NO CLOUDS BELOW
12 THOUSAND FEET.




USA.gov is the U.S. government's official web portal to all federal, state and local government web resources and services.